Time,TemperatureF,DewpointF,PressureIn,WindDirection,WindDirectionDegrees,WindSpeedMPH,WindSpeedGustMPH,Humidity,HourlyPrecipIn,Conditions,Clouds,dailyrainin,SoftwareType,DateUTC
2013-03-19 00:08:00,35.4,34.0,29.93,North,349,0.0,2.0,96,0.00,,,0.31,weatherlink.com 1.10,2013-03-19 04:08:00,
2013-03-19 00:23:00,35.4,34.0,29.92,NW,324,1.0,4.0,96,0.00,,,0.31,weatherlink.com 1.10,2013-03-19 04:23:00,
2013-03-19 00:38:00,35.3,34.0,29.91,NNW,336,1.0,2.0,96,0.00,,,0.00,weatherlink.com 1.10,2013-03-19 04:38:00,
2013-03-19 00:53:00,35.1,34.0,29.91,WSW,246,0.0,3.0,96,0.00,,,0.00,weatherlink.com 1.10,2013-03-19 04:53:00,
2013-03-19 01:08:00,35.0,34.0,29.90,WNW,299,1.0,3.0,96,0.00,,,0.00,weatherlink.com 1.10,2013-03-19 05:08:00,
2013-03-19 01:23:00,34.8,34.0,29.90,WNW,287,2.0,3.0,96,0.00,,,0.00,weatherlink.com 1.10,2013-03-19 05:23:00,
2013-03-19 01:38:00,34.8,34.0,29.90,SSE,161,0.0,2.0,96,0.00,,,0.00,weatherlink.com 1.10,2013-03-19 05:38:00,
2013-03-19 01:53:00,34.8,34.0,29.89,South,176,0.0,2.0,96,0.00,,,0.00,weatherlink.com 1.10,2013-03-19 05:53:00,
2013-03-19 02:08:00,34.6,34.0,29.88,South,175,0.0,2.0,96,0.00,,,0.00,weatherlink.com 1.10,2013-03-19 06:08:00,
2013-03-19 02:23:00,34.4,33.0,29.88,South,175,1.0,1.0,96,0.00,,,0.00,weatherlink.com 1.10,2013-03-19 06:23:00,
2013-03-19 02:38:00,34.4,33.0,29.88,South,175,0.0,2.0,96,0.00,,,0.00,weatherlink.com 1.10,2013-03-19 06:38:00,
2013-03-19 02:53:00,34.3,33.0,29.87,South,175,1.0,1.0,96,0.00,,,0.00,weatherlink.com 1.10,2013-03-19 06:53:00,
2013-03-19 03:08:00,34.3,33.0,29.86,South,179,0.0,1.0,96,0.00,,,0.00,weatherlink.com 1.10,2013-03-19 07:08:00,
2013-03-19 03:23:00,34.3,33.0,29.86,South,179,0.0,0.0,96,0.00,,,0.00,weatherlink.com 1.10,2013-03-19 07:23:00,
2013-03-19 03:38:00,34.3,34.0,29.86,SW,228,1.0,2.0,97,0.00,,,0.00,weatherlink.com 1.10,2013-03-19 07:38:00,
2013-03-19 03:53:00,34.1,33.0,29.85,WSW,255,1.0,2.0,96,0.00,,,0.00,weatherlink.com 1.10,2013-03-19 07:53:00,
2013-03-19 04:08:00,34.0,33.0,29.84,South,184,0.0,3.0,96,0.00,,,0.00,weatherlink.com 1.10,2013-03-19 08:08:00,
2013-03-19 04:23:00,33.9,33.0,29.84,SSW,213,0.0,2.0,96,0.00,,,0.00,weatherlink.com 1.10,2013-03-19 08:23:00,
2013-03-19 04:38:00,33.9,33.0,29.83,SW,226,0.0,4.0,97,0.00,,,0.00,weatherlink.com 1.10,2013-03-19 08:38:00,
2013-03-19 04:53:00,33.9,33.0,29.84,SW,232,1.0,3.0,97,0.00,,,0.00,weatherlink.com 1.10,2013-03-19 08:53:00,
2013-03-19 05:08:00,33.8,33.0,29.84,South,189,2.0,5.0,97,0.00,,,0.00,weatherlink.com 1.10,2013-03-19 09:08:00,
2013-03-19 05:23:00,33.7,33.0,29.84,West,265,1.0,6.0,97,0.00,,,0.00,weatherlink.com 1.10,2013-03-19 09:23:00,
2013-03-19 05:38:00,33.6,33.0,29.84,SSE,158,2.0,6.0,97,0.00,,,0.00,weatherlink.com 1.10,2013-03-19 09:38:00,
2013-03-19 05:53:00,33.5,33.0,29.84,WSW,242,2.0,3.0,97,0.00,,,0.00,weatherlink.com 1.10,2013-03-19 09:53:00,
2013-03-19 06:08:00,33.6,33.0,29.85,South,174,2.0,4.0,97,0.00,,,0.00,weatherlink.com 1.10,2013-03-19 10:08:00,
2013-03-19 06:23:00,33.7,33.0,29.85,SSE,153,1.0,3.0,97,0.00,,,0.00,weatherlink.com 1.10,2013-03-19 10:23:00,
2013-03-19 06:38:00,33.8,33.0,29.84,SSE,165,1.0,2.0,97,0.00,,,0.00,weatherlink.com 1.10,2013-03-19 10:38:00,
2013-03-19 06:53:00,33.6,33.0,29.85,North,10,1.0,3.0,97,0.00,,,0.00,weatherlink.com 1.10,2013-03-19 10:53:00,
2013-03-19 07:08:00,33.3,33.0,29.85,West,279,2.0,3.0,97,0.00,,,0.00,weatherlink.com 1.10,2013-03-19 11:08:00,
2013-03-19 07:23:00,33.5,33.0,29.86,NW,312,0.0,4.0,97,0.00,,,0.00,weatherlink.com 1.10,2013-03-19 11:23:00,
2013-03-19 07:38:00,33.7,33.0,29.87,NW,325,2.0,2.0,97,0.00,,,0.00,weatherlink.com 1.10,2013-03-19 11:38:00,
2013-03-19 07:53:00,34.2,34.0,29.87,NW,326,1.0,4.0,97,0.00,,,0.00,weatherlink.com 1.10,2013-03-19 11:53:00,
2013-03-19 08:08:00,34.4,34.0,29.88,NNW,327,1.0,3.0,97,0.00,,,0.00,weatherlink.com 1.10,2013-03-19 12:08:00,
2013-03-19 08:24:00,34.5,34.0,29.88,NW,321,0.0,2.0,97,0.00,,,0.00,weatherlink.com 1.10,2013-03-19 12:24:00,
2013-03-19 08:39:00,34.7,34.0,29.88,NW,321,0.0,1.0,97,0.00,,,0.00,weatherlink.com 1.10,2013-03-19 12:39:00,
2013-03-19 08:54:00,35.3,35.0,29.89,NW,321,0.0,1.0,97,0.00,,,0.00,weatherlink.com 1.10,2013-03-19 12:54:00,
2013-03-19 09:09:00,35.9,35.0,29.90,South,190,0.0,2.0,97,0.00,,,0.00,weatherlink.com 1.10,2013-03-19 13:09:00,
2013-03-19 09:24:00,36.3,36.0,29.90,South,190,0.0,0.0,97,0.00,,,0.00,weatherlink.com 1.10,2013-03-19 13:24:00,
2013-03-19 09:39:00,38.3,38.0,29.91,NNW,331,0.0,2.0,97,0.00,,,0.00,weatherlink.com 1.10,2013-03-19 13:39:00,
2013-03-19 09:54:00,41.3,41.0,29.91,WNW,296,0.0,2.0,98,0.00,,,0.00,weatherlink.com 1.10,2013-03-19 13:54:00,
2013-03-19 10:09:00,43.7,43.0,29.91,NW,309,0.0,4.0,98,0.00,,,0.00,weatherlink.com 1.10,2013-03-19 14:09:00,
2013-03-19 10:24:00,45.9,45.0,29.91,WNW,286,1.0,4.0,98,0.00,,,0.00,weatherlink.com 1.10,2013-03-19 14:24:00,
2013-03-19 10:39:00,48.8,44.0,29.91,WSW,241,3.0,4.0,82,0.00,,,0.00,weatherlink.com 1.10,2013-03-19 14:39:00,
2013-03-19 10:54:00,51.2,41.0,29.91,NW,309,0.0,3.0,69,0.00,,,0.00,weatherlink.com 1.10,2013-03-19 14:54:00,
2013-03-19 11:09:00,53.3,38.0,29.90,WSW,240,1.0,10.0,57,0.00,,,0.00,weatherlink.com 1.10,2013-03-19 15:09:00,
2013-03-19 11:24:00,55.4,38.0,29.90,SSW,205,1.0,6.0,53,0.00,,,0.00,weatherlink.com 1.10,2013-03-19 15:24:00,
2013-03-19 11:39:00,56.8,37.0,29.90,SSE,155,3.0,7.0,47,0.00,,,0.00,weatherlink.com 1.10,2013-03-19 15:39:00,
2013-03-19 11:54:00,58.8,36.0,29.89,NW,306,1.0,5.0,42,0.00,,,0.00,weatherlink.com 1.10,2013-03-19 15:54:00,
2013-03-19 12:09:00,60.2,24.0,29.89,WNW,301,6.0,9.0,25,0.00,,,0.00,weatherlink.com 1.10,2013-03-19 16:09:00,
2013-03-19 12:24:00,60.0,22.0,29.89,WSW,237,5.0,17.0,23,0.00,,,0.00,weatherlink.com 1.10,2013-03-19 16:24:00,
2013-03-19 12:39:00,61.4,25.0,29.90,NW,311,7.0,8.0,25,0.00,,,0.00,weatherlink.com 1.10,2013-03-19 16:39:00,
2013-03-19 12:54:00,60.7,26.0,29.90,West,266,5.0,13.0,27,0.00,,,0.00,weatherlink.com 1.10,2013-03-19 16:54:00,
2013-03-19 13:24:00,62.1,24.0,29.91,WNW,295,5.0,12.0,23,0.00,,,0.00,weatherlink.com 1.10,2013-03-19 17:24:00,
2013-03-19 13:39:00,62.6,24.0,29.90,West,274,4.0,12.0,23,0.00,,,0.00,weatherlink.com 1.10,2013-03-19 17:39:00,
2013-03-19 13:55:00,64.1,25.0,29.89,NW,309,8.0,12.0,23,0.00,,,0.00,weatherlink.com 1.10,2013-03-19 17:55:00,
2013-03-19 14:10:00,64.2,21.0,29.89,SW,223,8.0,15.0,19,0.00,,,0.00,weatherlink.com 1.10,2013-03-19 18:10:00,
2013-03-19 14:40:00,64.1,21.0,29.89,NNW,329,12.0,13.0,19,0.00,,,0.00,weatherlink.com 1.10,2013-03-19 18:40:00,
2013-03-19 14:55:00,64.3,21.0,29.89,WNW,302,8.0,14.0,19,0.00,,,0.00,weatherlink.com 1.10,2013-03-19 18:55:00,
2013-03-19 15:10:00,65.1,23.0,29.90,WNW,286,10.0,13.0,20,0.00,,,0.00,weatherlink.com 1.10,2013-03-19 19:10:00,
2013-03-19 15:25:00,63.7,23.0,29.89,WNW,298,9.0,15.0,21,0.00,,,0.00,weatherlink.com 1.10,2013-03-19 19:25:00,
2013-03-19 15:40:00,63.3,23.0,29.89,WSW,254,6.0,19.0,21,0.00,,,0.00,weatherlink.com 1.10,2013-03-19 19:40:00,
2013-03-19 15:55:00,62.7,21.0,29.88,WNW,302,6.0,21.0,20,0.00,,,0.00,weatherlink.com 1.10,2013-03-19 19:55:00,
2013-03-19 16:10:00,63.2,19.0,29.88,WNW,291,10.0,15.0,18,0.00,,,0.00,weatherlink.com 1.10,2013-03-19 20:10:00,
2013-03-19 16:25:00,63.7,18.0,29.88,West,272,10.0,15.0,17,0.00,,,0.00,weatherlink.com 1.10,2013-03-19 20:25:00,
2013-03-19 16:40:00,63.2,19.0,29.89,NNW,327,5.0,23.0,18,0.00,,,0.00,weatherlink.com 1.10,2013-03-19 20:40:00,
2013-03-19 16:55:00,63.3,19.0,29.89,West,277,3.0,17.0,18,0.00,,,0.00,weatherlink.com 1.10,2013-03-19 20:55:00,
2013-03-19 17:10:00,63.5,20.0,29.88,East,98,5.0,18.0,19,0.00,,,0.00,weatherlink.com 1.10,2013-03-19 21:10:00,
2013-03-19 17:25:00,63.4,19.0,29.89,WSW,250,7.0,20.0,18,0.00,,,0.00,weatherlink.com 1.10,2013-03-19 21:25:00,
2013-03-19 17:40:00,62.1,19.0,29.90,WNW,302,6.0,16.0,19,0.00,,,0.00,weatherlink.com 1.10,2013-03-19 21:40:00,
2013-03-19 17:55:00,61.4,20.0,29.90,WSW,257,6.0,19.0,20,0.00,,,0.00,weatherlink.com 1.10,2013-03-19 21:55:00,
2013-03-19 18:10:00,60.5,21.0,29.90,West,273,7.0,24.0,22,0.00,,,0.00,weatherlink.com 1.10,2013-03-19 22:10:00,
2013-03-19 18:25:00,59.9,21.0,29.91,WNW,288,6.0,13.0,22,0.00,,,0.00,weatherlink.com 1.10,2013-03-19 22:25:00,
2013-03-19 18:40:00,59.7,23.0,29.92,WSW,242,6.0,13.0,24,0.00,,,0.00,weatherlink.com 1.10,2013-03-19 22:40:00,
2013-03-19 18:55:00,58.5,16.0,29.93,WNW,302,5.0,14.0,19,0.00,,,0.00,weatherlink.com 1.10,2013-03-19 22:55:00,
2013-03-19 19:10:00,57.0,14.0,29.94,NNW,340,4.0,21.0,18,0.00,,,0.00,weatherlink.com 1.10,2013-03-19 23:10:00,
2013-03-19 19:25:00,56.0,13.0,29.95,West,271,3.0,12.0,18,0.00,,,0.00,weatherlink.com 1.10,2013-03-19 23:25:00,
2013-03-19 19:40:00,54.9,12.0,29.96,West,276,5.0,16.0,18,0.00,,,0.00,weatherlink.com 1.10,2013-03-19 23:40:00,
2013-03-19 19:55:00,54.1,10.0,29.97,WNW,300,8.0,14.0,17,0.00,,,0.00,weatherlink.com 1.10,2013-03-19 23:55:00,
2013-03-19 20:10:00,53.4,9.0,29.97,WNW,286,4.0,12.0,17,0.00,,,0.00,weatherlink.com 1.10,2013-03-20 00:10:00,
2013-03-19 20:25:00,52.9,8.0,29.98,West,275,4.0,17.0,16,0.00,,,0.00,weatherlink.com 1.10,2013-03-20 00:25:00,
2013-03-19 20:40:00,52.4,10.0,29.99,WSW,247,2.0,11.0,18,0.00,,,0.00,weatherlink.com 1.10,2013-03-20 00:40:00,
2013-03-19 20:55:00,51.7,8.0,30.00,WNW,299,6.0,12.0,17,0.00,,,0.00,weatherlink.com 1.10,2013-03-20 00:55:00,
2013-03-19 21:10:00,51.3,8.0,30.01,WNW,286,5.0,11.0,17,0.00,,,0.00,weatherlink.com 1.10,2013-03-20 01:10:00,
2013-03-19 21:25:00,50.7,7.0,30.02,West,281,4.0,9.0,17,0.00,,,0.00,weatherlink.com 1.10,2013-03-20 01:25:00,
2013-03-19 21:40:00,49.7,9.0,30.02,WNW,292,2.0,6.0,19,0.00,,,0.00,weatherlink.com 1.10,2013-03-20 01:40:00,
2013-03-19 21:55:00,48.7,9.0,30.03,West,279,5.0,6.0,20,0.00,,,0.00,weatherlink.com 1.10,2013-03-20 01:55:00,
2013-03-19 22:10:00,48.0,9.0,30.04,SW,231,3.0,7.0,20,0.00,,,0.00,weatherlink.com 1.10,2013-03-20 02:10:00,
2013-03-19 22:25:00,47.3,9.0,30.04,WNW,294,2.0,5.0,21,0.00,,,0.00,weatherlink.com 1.10,2013-03-20 02:25:00,
2013-03-19 22:40:00,46.7,10.0,30.04,WSW,252,2.0,5.0,22,0.00,,,0.00,weatherlink.com 1.10,2013-03-20 02:40:00,
2013-03-19 22:55:00,46.1,8.0,30.05,WNW,298,1.0,4.0,21,0.00,,,0.00,weatherlink.com 1.10,2013-03-20 02:55:00,
2013-03-19 23:10:00,45.6,9.0,30.05,WNW,290,2.0,7.0,22,0.00,,,0.00,weatherlink.com 1.10,2013-03-20 03:10:00,
2013-03-19 23:25:00,45.5,7.0,30.06,West,281,2.0,7.0,21,0.00,,,0.00,weatherlink.com 1.10,2013-03-20 03:25:00,
2013-03-19 23:40:00,45.6,7.0,30.05,WNW,288,7.0,8.0,20,0.00,,,0.00,weatherlink.com 1.10,2013-03-20 03:40:00,
2013-03-19 23:55:00,46.0,2.0,30.05,West,276,5.0,13.0,16,0.00,,,0.00,weatherlink.com 1.10,2013-03-20 03:55:00,